Time,TemperatureF,DewpointF,PressureIn,WindDirection,WindDirectionDegrees,WindSpeedMPH,WindSpeedGustMPH,Humidity,HourlyPrecipIn,Conditions,Clouds,dailyrainin,SoftwareType,DateUTC
2013-05-19 00:00:00,72.0,71.4,29.65,SE,135,14.1,-999.0,98,-99.99,,,0.00,Acu-Link.com,2013-05-19 05:00:00,
2013-05-19 00:15:00,72.0,71.4,29.65,SSE,157,13.0,-999.0,98,-99.99,,,0.00,Acu-Link.com,2013-05-19 05:15:00,
2013-05-19 00:30:00,72.0,71.4,29.64,SSE,157,11.0,-999.0,98,-99.99,,,0.00,Acu-Link.com,2013-05-19 05:30:00,
2013-05-19 00:45:00,72.5,71.9,29.64,SSE,157,14.1,-999.0,98,-99.99,,,0.00,Acu-Link.com,2013-05-19 05:45:00,
2013-05-19 01:00:00,72.9,72.3,29.63,SSE,157,13.0,-999.0,98,-99.99,,,0.00,Acu-Link.com,2013-05-19 06:00:00,
2013-05-19 01:16:00,72.9,72.3,29.63,SE,135,9.4,-999.0,98,-99.99,,,0.00,Acu-Link.com,2013-05-19 06:16:00,
2013-05-19 01:31:00,73.0,72.4,29.63,SSE,157,9.4,-999.0,98,-99.99,,,0.00,Acu-Link.com,2013-05-19 06:31:00,
2013-05-19 01:46:00,73.9,73.0,29.62,South,180,13.0,-999.0,97,-99.99,,,0.00,Acu-Link.com,2013-05-19 06:46:00,
2013-05-19 02:01:00,74.5,72.9,29.62,SSE,157,8.3,-999.0,95,-99.99,,,0.00,Acu-Link.com,2013-05-19 07:01:00,
2013-05-19 02:16:00,74.8,73.0,29.61,SSE,157,10.3,-999.0,94,-99.99,,,0.00,Acu-Link.com,2013-05-19 07:16:00,
2013-05-19 02:32:00,76.6,72.5,29.60,South,180,7.8,-999.0,87,-99.99,,,0.00,Acu-Link.com,2013-05-19 07:32:00,
2013-05-19 02:47:00,77.9,72.3,29.60,South,180,13.0,-999.0,83,-99.99,,,0.00,Acu-Link.com,2013-05-19 07:47:00,
2013-05-19 03:02:00,78.1,72.1,29.59,SSW,202,11.0,-999.0,82,-99.99,,,0.00,Acu-Link.com,2013-05-19 08:02:00,
2013-05-19 03:17:00,78.3,71.9,29.59,South,180,8.9,-999.0,81,-99.99,,,0.00,Acu-Link.com,2013-05-19 08:17:00,
2013-05-19 03:32:00,79.0,71.9,29.59,SSW,202,11.9,-999.0,79,-99.99,,,0.00,Acu-Link.com,2013-05-19 08:32:00,
2013-05-19 03:47:00,78.6,71.2,29.59,South,180,15.0,-999.0,78,-99.99,,,0.00,Acu-Link.com,2013-05-19 08:47:00,
2013-05-19 04:02:00,78.4,71.4,29.58,SSW,202,15.0,-999.0,79,-99.99,,,0.00,Acu-Link.com,2013-05-19 09:02:00,
2013-05-19 04:17:00,78.3,71.2,29.58,South,180,11.4,-999.0,79,-99.99,,,0.00,Acu-Link.com,2013-05-19 09:17:00,
2013-05-19 04:33:00,78.4,71.4,29.58,South,180,9.8,-999.0,79,-99.99,,,0.00,Acu-Link.com,2013-05-19 09:33:00,
2013-05-19 04:48:00,77.9,71.2,29.58,South,180,13.4,-999.0,80,-99.99,,,0.00,Acu-Link.com,2013-05-19 09:48:00,
2013-05-19 05:03:00,77.7,71.4,29.58,South,180,15.4,-999.0,81,-99.99,,,0.00,Acu-Link.com,2013-05-19 10:03:00,
2013-05-19 05:18:00,77.4,71.4,29.58,South,180,10.3,-999.0,82,-99.99,,,0.00,Acu-Link.com,2013-05-19 10:18:00,
2013-05-19 05:33:00,76.8,71.3,29.59,SSW,202,9.4,-999.0,83,-99.99,,,0.00,Acu-Link.com,2013-05-19 10:33:00,
2013-05-19 05:48:00,76.8,71.6,29.58,South,180,17.0,-999.0,84,-99.99,,,0.00,Acu-Link.com,2013-05-19 10:48:00,
2013-05-19 06:04:00,76.3,71.1,29.58,WSW,247,11.9,-999.0,84,-99.99,,,0.00,Acu-Link.com,2013-05-19 11:04:00,
2013-05-19 06:19:00,76.3,71.4,29.58,SSW,202,11.4,-999.0,85,-99.99,,,0.00,Acu-Link.com,2013-05-19 11:19:00,
2013-05-19 06:34:00,75.6,71.1,29.58,SW,225,6.7,-999.0,86,-99.99,,,0.00,Acu-Link.com,2013-05-19 11:34:00,
2013-05-19 06:49:00,75.6,71.4,29.59,SW,225,13.4,-999.0,87,-99.99,,,0.00,Acu-Link.com,2013-05-19 11:49:00,
2013-05-19 07:04:00,75.6,71.4,29.59,South,180,11.0,-999.0,87,-99.99,,,0.00,Acu-Link.com,2013-05-19 12:04:00,
2013-05-19 07:20:00,75.7,71.6,29.60,South,180,11.4,-999.0,87,-99.99,,,0.00,Acu-Link.com,2013-05-19 12:20:00,
2013-05-19 07:35:00,76.1,71.6,29.60,SW,225,13.0,-999.0,86,-99.99,,,0.00,Acu-Link.com,2013-05-19 12:35:00,
2013-05-19 07:50:00,76.5,71.6,29.61,SW,225,8.3,-999.0,85,-99.99,,,0.00,Acu-Link.com,2013-05-19 12:50:00,
2013-05-19 08:05:00,77.4,71.8,29.62,SSW,202,7.4,-999.0,83,-99.99,,,0.00,Acu-Link.com,2013-05-19 13:05:00,
2013-05-19 08:20:00,77.9,71.9,29.61,SSW,202,12.5,-999.0,82,-99.99,,,0.00,Acu-Link.com,2013-05-19 13:20:00,
2013-05-19 08:36:00,79.0,72.3,29.61,SW,225,9.8,-999.0,80,-99.99,,,0.00,Acu-Link.com,2013-05-19 13:36:00,
2013-05-19 08:51:00,80.6,72.3,29.60,SSW,202,13.0,-999.0,76,-99.99,,,0.00,Acu-Link.com,2013-05-19 13:51:00,
2013-05-19 09:06:00,81.3,72.6,29.61,SSW,202,9.8,-999.0,75,-99.99,,,0.00,Acu-Link.com,2013-05-19 14:06:00,
2013-05-19 09:21:00,82.0,72.1,29.60,West,270,9.4,-999.0,72,-99.99,,,0.00,Acu-Link.com,2013-05-19 14:21:00,
2013-05-19 09:37:00,83.5,72.2,29.60,SW,225,11.0,-999.0,69,-99.99,,,0.00,Acu-Link.com,2013-05-19 14:37:00,
2013-05-19 09:52:00,83.8,71.7,29.60,SSW,202,8.3,-999.0,67,-99.99,,,0.00,Acu-Link.com,2013-05-19 14:52:00,
2013-05-19 10:07:00,85.8,69.8,29.60,West,270,11.0,-999.0,59,-99.99,,,0.00,Acu-Link.com,2013-05-19 15:07:00,
2013-05-19 10:22:00,86.7,69.6,29.59,West,270,11.4,-999.0,57,-99.99,,,0.00,Acu-Link.com,2013-05-19 15:22:00,
2013-05-19 10:37:00,88.5,68.0,29.60,NNW,337,10.3,-999.0,51,-99.99,,,0.00,Acu-Link.com,2013-05-19 15:37:00,
2013-05-19 10:53:00,90.0,63.7,29.59,West,270,12.5,-999.0,42,-99.99,,,0.00,Acu-Link.com,2013-05-19 15:53:00,
2013-05-19 11:08:00,90.1,63.2,29.59,West,270,8.3,-999.0,41,-99.99,,,0.00,Acu-Link.com,2013-05-19 16:08:00,
2013-05-19 11:23:00,91.0,59.5,29.59,West,270,15.0,-999.0,35,-99.99,,,0.00,Acu-Link.com,2013-05-19 16:23:00,
2013-05-19 11:38:00,91.6,50.7,29.59,West,270,14.1,-999.0,25,-99.99,,,0.00,Acu-Link.com,2013-05-19 16:38:00,
2013-05-19 11:53:00,92.7,30.5,29.60,WSW,247,12.5,-999.0,11,-99.99,,,0.00,Acu-Link.com,2013-05-19 16:53:00,
2013-05-19 12:09:00,93.2,92.9,29.60,West,270,11.9,-999.0,99,-99.99,,,0.00,Acu-Link.com,2013-05-19 17:09:00,
2013-05-19 12:24:00,92.7,92.3,29.60,West,270,7.8,-999.0,99,-99.99,,,0.00,Acu-Link.com,2013-05-19 17:24:00,
2013-05-19 12:39:00,93.9,93.6,29.60,West,270,6.7,-999.0,99,-99.99,,,0.00,Acu-Link.com,2013-05-19 17:39:00,
2013-05-19 12:54:00,93.9,93.6,29.59,WNW,292,11.0,-999.0,99,-99.99,,,0.00,Acu-Link.com,2013-05-19 17:54:00,
2013-05-19 13:09:00,95.5,95.2,29.59,West,270,13.4,-999.0,99,-99.99,,,0.00,Acu-Link.com,2013-05-19 18:09:00,
2013-05-19 13:25:00,95.5,95.2,29.58,WSW,247,6.7,-999.0,99,-99.99,,,0.00,Acu-Link.com,2013-05-19 18:25:00,
2013-05-19 13:40:00,96.4,96.1,29.58,SSW,202,9.4,-999.0,99,-99.99,,,0.00,Acu-Link.com,2013-05-19 18:40:00,
2013-05-19 13:55:00,97.7,97.4,29.57,SSW,202,7.4,-999.0,99,-99.99,,,0.00,Acu-Link.com,2013-05-19 18:55:00,
2013-05-19 14:10:00,99.0,98.6,29.56,West,270,8.3,-999.0,99,-99.99,,,0.00,Acu-Link.com,2013-05-19 19:10:00,
2013-05-19 14:26:00,99.0,98.6,29.56,West,270,11.9,-999.0,99,-99.99,,,0.00,Acu-Link.com,2013-05-19 19:26:00,
2013-05-19 14:41:00,99.3,99.0,29.55,West,270,18.1,-999.0,99,-99.99,,,0.02,Acu-Link.com,2013-05-19 19:41:00,
2013-05-19 14:56:00,99.5,99.2,29.55,West,270,15.0,-999.0,99,-99.99,,,0.04,Acu-Link.com,2013-05-19 19:56:00,
2013-05-19 15:11:00,99.5,99.2,29.55,NW,315,11.0,-999.0,99,-99.99,,,0.04,Acu-Link.com,2013-05-19 20:11:00,
2013-05-19 15:26:00,100.0,99.7,29.54,West,270,11.4,-999.0,99,-99.99,,,0.06,Acu-Link.com,2013-05-19 20:26:00,
2013-05-19 15:41:00,99.9,99.5,29.53,West,270,12.5,-999.0,99,-99.99,,,0.09,Acu-Link.com,2013-05-19 20:41:00,
2013-05-19 15:56:00,99.5,99.2,29.53,WSW,247,12.5,-999.0,99,-99.99,,,0.31,Acu-Link.com,2013-05-19 20:56:00,
2013-05-19 16:12:00,99.7,99.3,29.53,West,270,11.0,-999.0,99,-99.99,,,0.35,Acu-Link.com,2013-05-19 21:12:00,
2013-05-19 16:27:00,100.6,99.9,29.52,WSW,247,13.4,-999.0,99,-99.99,,,0.35,Acu-Link.com,2013-05-19 21:27:00,
2013-05-19 16:42:00,99.5,99.2,29.51,West,270,23.7,-999.0,99,-99.99,,,0.37,Acu-Link.com,2013-05-19 21:42:00,
2013-05-19 16:57:00,99.5,99.2,29.51,West,270,15.4,-999.0,99,-99.99,,,0.39,Acu-Link.com,2013-05-19 21:57:00,
2013-05-19 17:12:00,99.0,98.6,29.51,West,270,21.7,-999.0,99,-99.99,,,0.39,Acu-Link.com,2013-05-19 22:12:00,
2013-05-19 17:27:00,99.3,99.0,29.50,West,270,21.3,-999.0,99,-99.99,,,0.98,Acu-Link.com,2013-05-19 22:27:00,
2013-05-19 17:43:00,99.3,99.0,29.50,WSW,247,19.7,-999.0,99,-99.99,,,1.04,Acu-Link.com,2013-05-19 22:43:00,
2013-05-19 17:58:00,97.9,97.5,29.50,West,270,20.1,-999.0,99,-99.99,,,1.04,Acu-Link.com,2013-05-19 22:58:00,
2013-05-19 18:13:00,98.4,98.1,29.50,WSW,247,16.6,-999.0,99,-99.99,,,1.35,Acu-Link.com,2013-05-19 23:13:00,
2013-05-19 18:28:00,97.7,97.4,29.51,West,270,10.3,-999.0,99,-99.99,,,1.35,Acu-Link.com,2013-05-19 23:28:00,
2013-05-19 18:43:00,97.3,97.0,29.51,West,270,15.0,-999.0,99,-99.99,,,1.35,Acu-Link.com,2013-05-19 23:43:00,
2013-05-19 18:59:00,96.8,96.5,29.51,West,270,17.7,-999.0,99,-99.99,,,1.35,Acu-Link.com,2013-05-19 23:59:00,
2013-05-19 19:14:00,96.1,95.8,29.52,WNW,292,15.0,-999.0,99,-99.99,,,1.35,Acu-Link.com,2013-05-20 00:14:00,
2013-05-19 19:29:00,95.4,95.0,29.52,West,270,14.1,-999.0,99,-99.99,,,1.35,Acu-Link.com,2013-05-20 00:29:00,
2013-05-19 19:44:00,94.3,94.0,29.53,West,270,8.9,-999.0,99,-99.99,,,1.35,Acu-Link.com,2013-05-20 00:44:00,
2013-05-19 20:00:00,92.1,91.8,29.53,West,270,5.8,-999.0,99,-99.99,,,1.35,Acu-Link.com,2013-05-20 01:00:00,
2013-05-19 20:15:00,90.0,89.6,29.55,West,270,4.7,-999.0,99,-99.99,,,1.35,Acu-Link.com,2013-05-20 01:15:00,
2013-05-19 20:30:00,87.6,87.3,29.55,West,270,4.7,-999.0,99,-99.99,,,1.35,Acu-Link.com,2013-05-20 01:30:00,
2013-05-19 20:45:00,86.5,86.2,29.56,West,270,3.1,-999.0,99,-99.99,,,1.35,Acu-Link.com,2013-05-20 01:45:00,
2013-05-19 21:00:00,85.8,85.5,29.57,West,270,4.7,-999.0,99,-99.99,,,1.35,Acu-Link.com,2013-05-20 02:00:00,
2013-05-19 21:16:00,84.9,84.6,29.57,WSW,247,5.1,-999.0,99,-99.99,,,1.35,Acu-Link.com,2013-05-20 02:16:00,
2013-05-19 21:31:00,85.6,85.3,29.57,West,270,2.2,-999.0,99,-99.99,,,1.35,Acu-Link.com,2013-05-20 02:31:00,
2013-05-19 21:46:00,84.2,83.9,29.58,SW,225,0.0,-999.0,99,-99.99,,,1.35,Acu-Link.com,2013-05-20 02:46:00,
2013-05-19 22:01:00,83.7,83.3,29.58,NNW,337,0.0,-999.0,99,-99.99,,,1.35,Acu-Link.com,2013-05-20 03:01:00,
2013-05-19 22:16:00,83.1,82.8,29.59,SW,225,0.0,-999.0,99,-99.99,,,1.35,Acu-Link.com,2013-05-20 03:16:00,
2013-05-19 22:32:00,83.5,83.2,29.60,SSW,202,0.0,-999.0,99,-99.99,,,1.35,Acu-Link.com,2013-05-20 03:32:00,
2013-05-19 22:47:00,84.0,83.7,29.60,SSW,202,0.0,-999.0,99,-99.99,,,1.35,Acu-Link.com,2013-05-20 03:47:00,
2013-05-19 23:02:00,82.8,18.2,29.61,WSW,247,0.0,-999.0,9,-99.99,,,1.35,Acu-Link.com,2013-05-20 04:02:00,
2013-05-19 23:17:00,82.2,37.1,29.62,WSW,247,4.7,-999.0,20,-99.99,,,1.35,Acu-Link.com,2013-05-20 04:17:00,
2013-05-19 23:32:00,80.2,40.2,29.62,West,270,0.0,-999.0,24,-99.99,,,1.35,Acu-Link.com,2013-05-20 04:32:00,
2013-05-19 23:48:00,78.3,41.5,29.61,West,270,0.0,-999.0,27,-99.99,,,1.35,Acu-Link.com,2013-05-20 04:48:00,